Wind_Speed
19 19 19 20 21 21 20 20 19 19 18 17 17 18 19 19 18 18 18 18 17 15 13 13 14 16 18 19 21 20 18 14 12 10 10 11 11 10 9 9 10 12 14 15 16 16 17 19 19 19 19 18 17 15 12 10 11 12 12 12 11 10
19 19 19 20 21 21 20 20 21 20 19 17 17 17 16 16 17 17 18 18 16 13 12 12 13 16 18 20 21 18 13 11 10 10 11 11 11 10 11 11 12 13 15 15 16 17 18 19 19 20 19 19 18 15 13 11 11 13 13 13 12 11
19 19 19 19 18 17 17 19 21 21 20 19 18 16 15 15 15 16 16 15 13 12 13 14 14 15 18 18 16 13 11 10 10 11 12 12 11 10 11 11 12 14 15 16 17 17 18 19 19 20 20 20 18 16 14 11 11 13 14 14 13 12
19 18 19 17 14 14 16 18 20 19 18 17 16 14 13 14 14 13 13 11 10 12 13 14 12 11 13 13 11 10 11 11 11 12 12 12 11 10 11 12 13 14 15 16 17 17 17 17 17 19 20 20 19 17 15 11 11 13 13 14 14 14
20 18 16 16 16 17 18 19 18 16 14 13 12 12 13 13 12 11 10 10 11 11 11 12 10 8 8 8 8 9 10 10 11 12 12 12 11 11 12 13 13 14 15 16 18 19 18 18 18 18 19 20 20 18 15 9 9 13 14 15 15 14
19 17 16 17 19 20 20 20 18 15 12 11 11 11 11 10 10 9 9 9 9 8 8 10 9 7 6 6 7 8 9 10 10 11 11 11 11 12 12 12 13 14 15 16 18 18 19 19 20 20 19 19 18 17 15 9 10 13 15 16 15 15
19 18 18 18 20 21 20 20 18 13 11 10 10 9 9 8 8 7 6 6 6 5 6 7 7 6 6 7 8 8 8 8 8 9 10 10 11 12 13 13 13 15 16 17 17 17 18 20 22 21 19 18 16 15 15 11 11 14 15 15 16 16
19 18 17 19 21 21 20 19 16 12 9 9 8 8 8 7 6 5 4 5 5 4 3 5 7 7 8 9 7 6 6 7 7 8 9 10 11 12 13 14 13 14 15 16 16 16 17 19 20 19 19 17 14 14 15 13 11 13 14 14 15 15
19 18 17 19 19 17 18 18 15 11 9 8 9 10 8 7 6 5 4 4 4 3 3 4 6 8 8 7 5 4 4 6 6 6 8 9 10 12 12 13 13 14 14 15 16 16 17 18 18 18 17 14 12 14 15 15 12 11 13 14 13 14
19 17 15 15 14 15 16 14 11 9 7 8 10 10 8 7 6 5 4 4 4 5 6 5 5 7 8 6 4 3 3 5 5 5 6 8 9 10 11 12 13 12 12 13 14 15 15 15 15 17 16 11 11 14 15 16 16 13 12 13 13 13
18 15 13 14 15 18 15 11 9 7 7 8 8 8 7 7 6 6 5 4 5 5 5 4 4 6 5 4 3 3 4 5 5 5 5 6 7 8 8 9 10 10 10 10 12 13 13 12 13 15 15 10 10 14 14 14 16 17 14 13 12 12
18 15 14 15 16 18 14 11 8 7 9 10 9 7 6 5 5 5 5 5 6 5 3 3 3 4 3 3 2 2 4 4 5 5 4 4 5 6 6 6 6 7 8 9 10 10 10 11 11 13 13 10 9 12 14 13 15 19 18 15 13 10
18 16 16 15 15 16 15 11 8 8 9 10 9 7 6 5 5 5 6 7 7 5 4 2 2 2 3 2 2 3 4 4 5 5 5 5 5 6 5 4 4 6 7 8 8 9 9 8 9 10 10 9 8 10 14 13 13 15 16 17 15 10
19 18 17 17 16 16 15 12 10 9 9 8 8 7 6 6 7 7 7 7 7 5 3 3 3 3 3 3 3 3 4 5 6 6 6 6 6 6 5 4 4 5 6 7 8 8 8 8 8 10 10 8 7 9 12 12 10 10 12 13 13 9
18 19 18 18 18 18 17 15 13 11 9 7 7 8 8 8 8 8 7 7 6 4 3 3 4 4 5 5 5 5 5 6 6 6 6 6 6 6 5 4 4 5 6 6 6 6 7 8 9 11 11 9 8 9 10 10 9 9 9 10 10 9
18 17 17 17 17 18 17 17 15 12 10 8 8 9 9 9 9 8 7 6 6 5 4 4 4 5 6 7 7 8 7 7 6 6 5 5 5 6 6 5 5 5 5 5 4 4 5 6 8 9 10 11 11 10 9 9 9 9 8 8 8 9
15 14 15 15 15 15 16 16 15 13 12 10 9 10 10 10 10 9 8 7 7 6 6 5 5 5 6 6 7 8 8 7 7 5 5 4 5 6 6 6 5 5 4 3 3 3 4 4 6 6 7 10 11 10 10 10 10 9 9 9 8 6
16 14 13 13 12 13 14 15 15 14 13 12 12 12 13 12 11 10 9 8 8 7 7 7 6 6 6 6 6 7 8 7 7 5 4 4 5 5 6 6 5 5 4 3 2 2 3 3 4 4 4 7 9 8 9 10 10 9 10 11 9 7
16 14 12 12 11 12 13 15 16 15 13 13 13 13 13 13 11 11 10 10 9 9 8 8 7 7 6 7 7 7 7 7 6 5 5 4 4 5 5 6 6 5 5 4 3 2 2 3 3 4 5 6 8 8 8 9 10 10 11 11 10 9
16 15 12 11 13 15 15 14 13 13 13 12 12 12 12 12 12 12 11 10 10 9 9 8 7 7 7 7 7 7 7 6 6 5 5 5 4 5 5 5 6 6 5 5 4 2 2 3 4 5 6 7 7 8 9 9 9 9 10 10 10 9
16 15 12 12 14 15 14 12 12 13 13 12 12 12 12 12 12 12 11 10 10 9 8 7 7 7 8 8 8 7 6 6 5 5 5 5 4 5 5 5 6 6 6 6 5 4 3 3 4 5 6 7 7 6 8 7 6 7 7 8 9 8
14 14 14 13 11 9 8 9 11 13 13 11 11 12 12 12 12 12 11 10 9 8 7 7 7 7 7 7 7 7 6 5 4 4 5 4 4 4 4 4 5 6 6 6 6 4 3 3 5 6 6 7 7 6 7 6 6 6 6 7 7 7
14 13 11 10 10 9 9 10 11 12 12 11 11 11 11 12 12 11 10 9 8 7 7 7 7 7 7 7 7 6 6 5 4 4 4 4 4 4 4 4 5 5 6 7 7 6 4 4 6 7 7 8 8 7 8 8 7 6 6 6 7 6
15 13 12 12 14 15 13 11 10 11 11 11 10 10 12 12 12 11 10 9 9 8 8 8 8 7 7 7 6 5 5 5 5 4 4 4 5 5 5 4 4 5 6 7 7 7 6 6 7 8 8 9 9 8 9 10 9 8 7 7 7 7
14 14 14 15 16 15 12 11 10 10 10 10 11 12 13 13 12 12 11 10 10 9 9 8 8 7 7 7 7 5 4 5 5 5 5 4 4 5 6 5 5 5 6 6 7 8 8 8 8 9 9 9 9 9 10 11 11 10 10 9 8 7
14 14 16 16 15 13 12 11 11 10 10 11 12 13 14 14 15 14 13 12 11 11 10 9 8 8 7 7 6 5 5 5 5 6 6 6 6 6 7 7 7 6 6 6 6 8 9 10 10 10 10 10 10 10 11 12 12 12 12 11 10 9
14 15 16 15 12 11 11 12 13 12 12 13 13 14 15 17 18 17 15 13 13 12 11 10 9 8 7 6 5 5 5 5 5 5 7 8 9 9 9 9 9 8 7 6 7 8 9 10 11 11 11 10 10 10 12 13 13 12 12 13 13 12
13 14 14 12 10 10 12 13 13 13 13 14 14 15 17 19 19 18 17 15 13 11 10 9 9 8 7 7 6 6 5 5 5 5 5 7 8 9 10 11 11 10 9 8 8 8 10 11 11 11 11 11 11 12 13 13 13 13 12 13 13 14
12 12 11 12 11 11 11 12 13 13 12 11 11 13 16 17 18 18 17 16 13 10 8 8 8 8 8 8 7 7 7 7 6 5 5 6 7 7 9 10 10 10 10 9 9 9 10 11 11 11 12 12 12 13 14 13 13 13 12 12 12 13
8 9 9 10 10 10 10 11 13 13 12 10 10 11 12 14 16 17 17 15 12 9 8 8 8 8 9 9 9 8 7 6 5 4 4 4 5 6 7 8 9 9 9 9 10 10 11 12 12 12 12 12 13 14 14 13 13 12 11 11 11 12
7 6 4 4 5 7 8 8 10 13 15 14 15 13 12 13 16 17 16 14 13 11 9 8 8 9 11 12 11 10 8 6 4 3 3 3 3 4 5 6 7 7 7 8 8 10 11 12 12 13 13 13 13 13 13 13 12 12 11 12 12 11
7 6 6 5 3 6 7 7 9 12 15 17 18 16 15 15 16 17 16 15 13 11 10 9 9 11 13 13 12 11 9 7 6 5 5 4 3 3 4 4 5 5 6 6 7 8 9 11 12 13 13 13 13 13 12 12 11 12 12 11 11 10
8 8 9 6 5 7 8 9 11 13 15 16 15 15 15 15 15 15 16 15 13 11 10 10 11 12 12 13 12 11 10 9 7 6 6 5 4 3 3 4 4 5 6 6 6 6 7 8 9 10 10 11 11 11 10 10 10 11 11 10 10 9
9 8 7 5 5 7 9 10 12 14 16 16 16 16 16 16 15 14 15 15 12 10 10 11 12 11 11 11 11 10 10 9 8 7 6 5 4 4 3 3 4 4 5 5 4 4 5 6 7 7 7 8 8 8 8 8 9 10 9 9 9 8
8 7 6 5 6 7 9 10 12 14 16 17 17 17 17 18 17 16 16 15 12 10 10 12 12 11 12 11 10 10 9 8 7 6 6 5 5 4 4 4 4 4 4 4 4 4 5 5 6 6 7 7 7 8 8 8 9 10 10 10 10 9
8 10 10 8 8 9 10 11 12 14 16 18 19 17 16 18 19 18 18 17 14 9 9 12 14 13 13 12 10 10 8 7 7 6 6 6 6 5 5 5 5 5 5 6 6 6 6 7 7 7 7 8 8 8 8 9 10 10 10 11 11 11
7 9 9 9 10 11 12 12 12 13 15 18 20 19 17 18 20 20 19 19 17 14 11 13 16 15 14 13 11 10 9 8 7 7 7 7 7 7 7 7 7 7 7 7 8 8 8 8 8 8 8 8 8 8 9 9 10 10 11 11 12 12
Wind_Direction
284 287 288 289 291 288 287 285 284 284 283 278 270 266 271 273 274 275 273 274 278 281 285 285 283 280 279 284 288 287 285 284 285 282 277 273 271 270 264 256 254 256 257 259 260 260 260 260 260 259 258 257 254 250 245 232 225 229 236 243 243 244
286 289 289 292 290 285 285 286 285 285 282 277 272 271 272 271 269 270 270 272 273 277 284 284 281 279 280 282 279 277 277 278 282 281 276 274 275 271 266 260 258 259 260 261 261 261 261 262 263 263 261 260 257 252 248 237 230 229 231 237 240 242
290 289 289 295 294 285 286 290 290 288 285 282 279 279 275 268 265 267 270 271 270 276 280 282 285 283 280 276 269 268 274 279 282 280 278 280 280 274 268 264 263 264 264 264 262 262 263 266 268 268 266 263 261 256 251 239 229 232 233 237 239 240
294 294 289 290 288 283 290 297 297 292 290 286 283 279 271 266 266 268 266 264 265 269 276 283 286 280 271 262 260 269 278 282 281 280 282 285 284 277 272 275 276 272 266 262 260 259 259 262 266 269 270 269 267 261 256 244 230 234 236 238 238 238
296 296 289 282 279 281 291 300 300 296 294 288 282 272 267 267 266 259 251 254 262 265 272 277 275 267 257 255 269 280 283 285 283 282 284 283 280 277 278 282 283 275 266 261 259 257 254 254 254 258 264 268 269 265 263 253 233 235 237 239 241 239
292 290 288 284 282 284 290 296 295 293 289 281 275 269 266 259 250 244 244 256 268 269 264 262 260 256 251 268 289 289 286 286 282 282 281 279 277 278 280 279 277 270 263 260 258 257 255 254 251 250 251 255 261 266 268 257 233 233 235 237 238 238
293 290 290 287 284 283 286 288 289 288 281 271 268 263 252 241 239 240 242 248 264 278 263 247 241 248 267 287 294 288 288 287 281 280 280 280 279 277 273 270 270 267 261 258 256 256 255 252 251 249 246 244 246 255 264 255 235 233 237 238 238 239
292 289 290 287 280 278 280 284 290 286 273 265 253 238 228 232 238 227 227 244 257 272 261 246 251 268 286 293 288 286 291 291 285 284 284 281 277 273 270 268 267 267 265 262 259 255 250 247 245 243 242 242 237 241 249 245 234 233 237 241 243 243
288 287 292 287 277 278 285 289 291 281 270 257 233 223 227 231 225 219 232 254 254 252 263 264 268 277 288 291 288 293 289 286 283 280 283 282 279 275 273 273 271 270 269 266 260 253 249 246 238 231 234 240 239 234 234 233 229 229 235 238 243 246
287 288 290 282 276 286 293 293 290 278 261 236 221 223 233 231 223 233 244 246 259 272 277 272 264 273 287 300 313 318 297 288 288 281 286 288 283 279 276 277 275 273 270 267 262 257 254 250 235 225 227 233 242 239 230 230 232 231 236 236 237 242
286 283 280 273 278 290 289 283 283 266 235 224 226 230 234 237 235 240 238 242 266 277 274 263 261 276 294 322 340 324 299 295 296 295 296 290 280 280 280 278 277 273 270 270 269 266 258 243 225 220 225 230 245 248 238 236 236 233 233 234 237 241
281 275 269 268 278 286 279 267 261 240 233 237 241 238 233 238 236 241 256 268 275 274 267 260 266 285 307 332 338 299 290 295 296 297 303 300 291 295 301 296 286 275 270 272 273 270 255 236 221 217 229 240 247 254 246 236 234 235 237 234 237 242
275 270 263 260 272 283 276 260 244 230 231 232 230 230 226 229 242 262 278 279 271 265 265 264 268 290 304 312 308 284 289 301 303 307 318 327 320 316 317 311 297 284 275 272 270 267 254 240 233 228 238 246 241 247 244 237 238 242 245 241 240 244
270 267 263 261 266 274 272 259 248 240 230 224 224 227 227 237 259 268 269 265 258 259 269 274 281 289 294 296 300 297 300 310 316 323 331 335 330 322 316 311 301 292 285 277 267 258 248 239 237 236 241 239 223 232 242 244 248 247 244 243 243 242
270 269 269 267 264 263 263 257 251 244 236 234 235 236 239 248 259 262 260 260 260 266 276 284 296 304 311 316 322 324 318 316 319 324 331 332 328 322 313 308 301 292 292 289 272 250 246 245 240 239 240 232 219 229 243 247 253 257 244 236 239 241
271 273 274 270 263 257 253 249 243 237 235 239 244 248 252 253 257 263 266 268 268 270 277 285 300 313 319 324 325 323 319 314 313 315 321 323 322 316 308 305 301 298 302 305 292 262 256 257 249 245 238 227 226 234 241 243 249 254 245 241 242 239
266 268 270 266 258 247 239 239 233 229 233 237 245 254 257 256 257 264 267 269 272 276 286 290 296 303 309 313 313 313 310 307 305 304 306 309 310 307 304 304 302 304 311 307 295 270 253 256 256 255 234 215 219 230 241 246 250 249 245 252 253 237
263 260 264 263 252 239 235 238 233 229 233 236 243 252 254 258 265 273 273 270 274 277 282 284 287 292 295 298 300 302 301 299 299 297 299 302 301 301 301 303 299 300 303 290 278 248 230 251 264 261 240 217 216 229 246 248 249 255 254 256 261 261
263 261 265 265 258 253 248 244 237 229 230 238 245 249 249 257 268 271 268 267 272 274 278 283 289 298 302 303 303 301 297 294 295 298 301 300 298 301 302 301 299 299 299 290 280 250 238 264 271 255 245 240 235 235 246 247 245 250 252 255 261 265
267 269 268 269 269 263 252 240 234 229 236 248 248 246 249 259 265 264 266 270 273 274 279 289 300 307 309 309 307 302 297 295 299 304 305 303 301 301 300 298 299 300 298 293 288 278 261 264 261 250 242 248 253 248 249 251 249 248 248 253 258 259
272 268 261 271 267 253 240 230 233 241 250 255 249 249 254 258 259 261 267 270 273 277 285 298 307 311 312 313 310 304 301 302 303 305 302 300 300 297 295 295 296 297 298 295 290 283 270 259 253 252 248 252 260 261 255 251 249 252 251 252 254 257
276 262 262 269 249 229 231 235 248 255 255 253 248 252 253 252 255 259 264 269 274 282 292 303 309 313 316 315 311 306 304 305 301 298 297 300 304 299 298 299 298 298 298 294 290 281 261 252 258 261 256 256 260 259 255 245 231 238 247 252 256 259
277 264 265 254 231 247 268 263 266 261 254 252 248 249 248 250 255 260 267 274 279 287 294 304 309 313 315 311 306 301 298 301 301 300 303 310 317 312 305 306 306 300 290 287 290 287 270 255 258 260 256 258 265 267 266 258 243 241 248 254 259 263
278 268 263 251 250 262 264 264 273 264 256 254 250 253 256 258 262 266 273 277 282 289 294 300 304 307 307 302 295 288 288 293 298 303 307 313 321 321 316 311 311 303 289 284 284 284 280 267 258 257 255 257 262 268 272 271 267 265 262 258 262 270
276 271 269 265 264 265 262 269 280 273 261 253 254 261 264 267 270 272 277 279 282 286 290 294 294 295 298 297 293 287 286 288 291 296 297 302 313 321 324 323 321 312 299 290 280 276 275 267 260 257 256 257 261 266 269 272 272 271 269 268 273 277
267 269 269 268 270 274 275 277 278 272 259 252 258 264 268 272 274 277 279 278 279 282 285 288 286 288 291 290 291 286 282 280 281 284 286 288 291 300 313 321 322 312 300 292 280 271 268 264 261 259 256 257 261 265 265 267 269 269 271 276 280 278
258 265 265 264 272 278 277 277 274 265 255 251 254 261 269 274 276 279 279 277 277 280 284 287 288 288 284 280 279 276 272 267 264 268 273 277 281 288 295 302 306 304 299 288 273 265 261 259 259 257 256 255 258 258 260 264 267 271 275 279 282 281
252 262 263 263 266 269 273 275 269 258 250 248 252 263 271 274 276 277 276 274 273 277 283 286 286 285 281 279 277 275 271 265 262 260 264 270 277 284 288 290 291 292 292 285 272 263 258 256 255 254 251 251 253 253 257 261 266 270 274 278 281 282
253 261 265 266 262 260 264 263 259 252 239 240 260 271 270 268 270 271 271 270 270 274 278 277 277 279 280 282 282 283 280 275 274 271 268 269 271 276 280 282 281 279 280 277 270 263 259 257 254 250 246 245 247 249 252 257 259 263 267 272 274 276
251 267 270 264 252 244 246 246 247 236 216 233 270 275 269 266 266 268 267 267 267 267 266 265 272 280 283 285 286 285 283 280 282 282 282 280 271 268 271 276 276 272 268 265 264 261 258 258 253 247 243 241 242 245 248 251 253 256 258 261 264 268
238 267 252 216 213 217 225 230 230 220 219 248 270 267 265 268 268 266 262 260 259 259 260 264 274 281 283 283 280 276 270 265 269 280 298 303 285 269 266 271 275 271 265 259 258 258 257 257 255 251 247 245 244 245 246 245 247 250 250 253 259 263
236 234 186 168 196 209 215 224 227 230 239 257 266 263 263 267 266 262 256 253 254 257 263 268 274 278 277 275 271 266 256 248 257 274 285 292 288 276 267 271 275 271 264 256 251 249 248 249 251 250 248 246 244 243 243 242 241 245 249 254 262 264
224 207 195 211 240 224 226 238 240 244 251 258 260 260 264 267 263 255 250 248 249 256 265 270 276 277 272 268 264 257 250 249 259 271 274 274 270 268 266 270 278 278 271 263 255 249 245 244 244 245 244 243 242 242 244 243 243 248 254 260 264 268
191 184 191 212 231 231 238 244 245 249 254 259 261 263 267 267 260 251 246 243 244 256 266 269 274 274 268 265 261 255 252 254 260 262 259 255 248 248 251 255 267 275 279 280 278 274 266 259 258 257 256 254 255 258 259 259 263 267 272 274 277 281
205 216 233 233 231 235 235 236 242 249 255 261 265 268 267 260 254 249 243 239 244 259 268 266 265 265 265 263 259 254 253 253 252 247 242 240 236 235 238 242 250 262 275 286 293 300 300 293 292 291 289 287 285 284 282 279 282 285 287 288 289 291
237 245 251 241 228 226 226 231 239 248 256 260 262 264 262 254 250 249 244 240 244 255 269 267 260 259 261 259 255 252 249 248 243 238 237 236 236 241 245 251 259 268 277 285 292 297 300 301 303 303 302 302 301 299 295 292 292 293 294 294 294 294
246 240 237 228 222 223 226 233 241 252 258 257 255 255 253 248 247 249 249 248 246 250 268 269 256 255 258 255 251 248 246 244 241 239 241 241 243 249 257 265 270 277 284 290 295 297 299 301 302 302 302 302 304 304 302 300 301 301 300 299 298 298
Height
5828 5828 5827 5826 5826 5825 5825 5825 5825 5824 5824 5823 5823 5824 5824 5825 5825 5825 5825 5826 5827 5827 5828 5828 5828 5828 5828 5828 5829 5829 5830 5831 5831 5830 5831 5831 5831 5830 5830 5830 5831 5830 5830 5830 5831 5831 5831 5830 5830 5830 5830 5831 5832 5834 5835 5837 5838 5838 5838 5838 5839 5840
5826 5826 5825 5824 5823 5823 5823 5823 5822 5822 5821 5821 5821 5822 5823 5823 5824 5824 5824 5825 5826 5826 5826 5826 5826 5826 5826 5827 5828 5829 5829 5830 5830 5830 5830 5830 5829 5828 5828 5828 5829 5829 5829 5829 5829 5829 5829 5829 5829 5829 5829 5829 5830 5832 5834 5835 5836 5836 5836 5837 5838 5838
5823 5823 5822 5822 5821 5820 5821 5821 5820 5819 5819 5819 5820 5820 5821 5821 5821 5822 5823 5823 5824 5824 5824 5824 5824 5824 5825 5826 5827 5828 5828 5828 5828 5828 5828 5828 5827 5827 5826 5826 5827 5827 5827 5828 5828 5828 5828 5828 5828 5828 5828 5828 5829 5831 5832 5833 5834 5834 5834 5835 5836 5836
5821 5821 5820 5820 5819 5818 5819 5818 5817 5817 5817 5817 5818 5818 5819 5819 5819 5820 5821 5821 5822 5822 5822 5822 5822 5823 5824 5825 5826 5826 5826 5826 5827 5827 5826 5826 5825 5825 5824 5824 5825 5825 5826 5826 5827 5826 5826 5826 5826 5826 5827 5827 5828 5829 5830 5832 5833 5832 5833 5833 5834 5835
5819 5818 5818 5817 5816 5816 5817 5816 5815 5814 5815 5815 5816 5816 5816 5817 5818 5818 5819 5819 5820 5820 5820 5820 5821 5821 5823 5824 5825 5825 5825 5825 5825 5825 5824 5824 5823 5823 5822 5822 5822 5823 5824 5825 5825 5824 5824 5824 5824 5823 5824 5825 5826 5827 5828 5831 5831 5831 5831 5831 5832 5833
5816 5816 5816 5815 5814 5814 5815 5814 5813 5813 5813 5814 5814 5814 5815 5815 5816 5816 5817 5817 5817 5817 5818 5819 5820 5821 5822 5823 5823 5823 5823 5823 5823 5823 5822 5822 5821 5821 5821 5820 5820 5821 5821 5822 5822 5821 5822 5822 5821 5820 5821 5822 5824 5826 5827 5829 5829 5829 5829 5829 5830 5830
5814 5814 5814 5813 5812 5812 5812 5811 5811 5811 5812 5812 5812 5813 5813 5813 5814 5815 5816 5816 5816 5816 5817 5818 5819 5820 5821 5822 5822 5822 5821 5821 5821 5821 5820 5820 5819 5819 5819 5819 5819 5819 5819 5819 5819 5819 5819 5819 5818 5818 5819 5819 5820 5823 5825 5827 5827 5827 5827 5827 5828 5829
5811 5812 5812 5811 5809 5809 5809 5808 5809 5810 5810 5810 5811 5811 5811 5812 5813 5814 5814 5815 5815 5816 5816 5817 5819 5819 5820 5820 5820 5820 5820 5819 5819 5819 5819 5818 5818 5817 5817 5817 5817 5817 5816 5816 5816 5816 5816 5816 5815 5816 5817 5818 5819 5820 5821 5823 5824 5824 5825 5826 5827 5828
5808 5810 5810 5808 5806 5807 5807 5807 5807 5807 5808 5809 5810 5811 5811 5811 5812 5813 5813 5813 5814 5815 5815 5816 5817 5818 5818 5819 5819 5818 5818 5818 5818 5818 5817 5817 5816 5816 5816 5816 5815 5815 5815 5814 5814 5813 5813 5813 5813 5814 5815 5818 5820 5818 5817 5820 5821 5822 5823 5823 5824 5826
5806 5807 5807 5805 5804 5804 5805 5805 5805 5805 5806 5808 5809 5809 5810 5810 5810 5811 5811 5812 5812 5813 5814 5814 5815 5816 5817 5817 5817 5816 5816 5816 5816 5816 5816 5815 5815 5815 5815 5814 5814 5813 5813 5812 5811 5811 5811 5811 5812 5813 5815 5818 5819 5816 5815 5817 5819 5820 5820 5820 5821 5822
5804 5805 5804 5803 5802 5801 5803 5804 5804 5804 5805 5806 5807 5808 5808 5808 5808 5809 5810 5811 5811 5812 5813 5813 5813 5814 5815 5814 5815 5815 5815 5815 5815 5815 5815 5814 5813 5813 5813 5812 5812 5811 5811 5810 5809 5810 5809 5810 5811 5813 5814 5817 5818 5815 5815 5817 5818 5819 5819 5819 5819 5820
5802 5802 5802 5801 5800 5799 5800 5802 5802 5803 5803 5804 5805 5806 5807 5807 5807 5808 5809 5810 5811 5812 5812 5812 5812 5812 5813 5813 5814 5814 5814 5814 5814 5814 5813 5812 5812 5811 5811 5810 5810 5810 5809 5808 5808 5808 5808 5809 5810 5812 5814 5815 5816 5814 5814 5816 5817 5816 5817 5818 5818 5819
5799 5799 5799 5800 5800 5797 5796 5799 5800 5802 5802 5803 5804 5804 5805 5806 5806 5807 5808 5809 5810 5811 5811 5811 5810 5811 5812 5812 5813 5813 5813 5812 5812 5812 5811 5810 5810 5809 5809 5809 5809 5808 5807 5807 5807 5808 5808 5809 5810 5811 5813 5814 5814 5812 5813 5815 5815 5815 5816 5817 5817 5819
5797 5796 5797 5798 5800 5798 5795 5796 5797 5799 5801 5802 5802 5803 5803 5804 5805 5806 5807 5808 5809 5809 5810 5810 5809 5810 5811 5811 5812 5812 5811 5811 5810 5810 5809 5809 5808 5808 5808 5807 5808 5807 5807 5806 5807 5807 5808 5808 5809 5809 5810 5812 5813 5811 5812 5813 5813 5813 5814 5815 5817 5819
5794 5795 5796 5797 5798 5799 5797 5796 5796 5797 5798 5799 5800 5801 5802 5803 5804 5805 5806 5806 5807 5808 5809 5809 5809 5808 5808 5809 5810 5810 5810 5809 5809 5808 5808 5808 5808 5807 5807 5807 5807 5806 5806 5805 5806 5806 5806 5806 5807 5807 5808 5810 5811 5811 5811 5812 5813 5813 5813 5814 5816 5817
5793 5794 5795 5795 5796 5797 5797 5796 5796 5796 5796 5798 5798 5800 5801 5803 5804 5804 5805 5805 5806 5807 5808 5808 5808 5807 5806 5806 5807 5808 5808 5809 5808 5808 5808 5808 5807 5807 5806 5806 5806 5806 5805 5804 5804 5804 5804 5805 5805 5806 5807 5809 5810 5811 5811 5811 5812 5812 5813 5814 5815 5816
5792 5794 5794 5794 5794 5795 5795 5795 5795 5796 5796 5797 5798 5799 5800 5802 5803 5803 5804 5804 5805 5805 5806 5806 5807 5807 5806 5806 5806 5807 5807 5808 5808 5808 5807 5807 5807 5807 5806 5806 5806 5806 5805 5804 5803 5803 5804 5804 5804 5804 5806 5808 5810 5810 5810 5810 5811 5811 5812 5813 5813 5813
5790 5792 5792 5793 5794 5794 5794 5795 5795 5795 5796 5797 5798 5799 5800 5800 5801 5802 5802 5803 5804 5804 5804 5805 5806 5806 5807 5807 5807 5807 5807 5807 5807 5807 5807 5807 5807 5806 5806 5806 5805 5805 5805 5804 5803 5803 5804 5804 5804 5803 5805 5807 5809 5809 5809 5809 5809 5810 5811 5811 5811 5812
5788 5789 5791 5792 5792 5793 5793 5793 5794 5795 5796 5797 5798 5798 5799 5799 5800 5800 5801 5802 5803 5803 5804 5804 5804 5805 5805 5805 5806 5806 5807 5806 5806 5806 5806 5806 5806 5806 5806 5805 5805 5805 5804 5803 5803 5803 5803 5804 5803 5803 5804 5805 5807 5808 5808 5808 5809 5809 5809 5809 5810 5811
5787 5788 5789 5790 5791 5791 5792 5793 5793 5794 5796 5797 5797 5798 5798 5798 5799 5800 5800 5801 5801 5802 5803 5803 5803 5803 5803 5804 5804 5805 5805 5805 5805 5804 5804 5804 5805 5805 5805 5805 5804 5804 5803 5803 5803 5803 5803 5802 5803 5803 5804 5804 5806 5807 5807 5807 5808 5808 5808 5808 5809 5810
5786 5787 5788 5789 5790 5790 5791 5792 5793 5794 5795 5796 5797 5797 5797 5798 5798 5798 5799 5799 5800 5801 5801 5801 5801 5801 5802 5802 5803 5803 5803 5803 5803 5803 5803 5803 5803 5803 5804 5804 5804 5803 5802 5802 5802 5802 5802 5802 5802 5802 5803 5803 5804 5805 5804 5804 5805 5806 5807 5808 5808 5808
5785 5787 5788 5789 5789 5790 5790 5792 5793 5794 5794 5794 5795 5796 5797 5797 5797 5798 5798 5799 5799 5800 5800 5800 5800 5800 5800 5801 5801 5801 5801 5801 5802 5802 5802 5802 5802 5802 5802 5803 5803 5802 5802 5801 5801 5801 5802 5802 5801 5801 5802 5802 5802 5803 5802 5802 5803 5805 5806 5807 5806 5806
5783 5785 5787 5789 5789 5790 5790 5791 5792 5792 5792 5793 5794 5795 5796 5797 5797 5797 5798 5798 5798 5798 5798 5799 5799 5799 5799 5799 5800 5800 5800 5800 5800 5800 5800 5800 5800 5801 5801 5801 5801 5801 5801 5801 5801 5801 5801 5801 5801 5801 5801 5801 5801 5801 5800 5800 5802 5804 5805 5805 5804 5804
5780 5782 5785 5788 5789 5789 5790 5790 5791 5791 5792 5793 5794 5795 5796 5796 5797 5797 5797 5797 5797 5797 5797 5798 5798 5798 5798 5798 5799 5799 5798 5799 5799 5799 5799 5799 5799 5799 5799 5800 5800 5800 5800 5800 5800 5800 5800 5800 5800 5800 5801 5800 5800 5799 5799 5799 5801 5802 5802 5803 5803 5803
5778 5779 5781 5784 5785 5787 5788 5789 5790 5791 5791 5792 5793 5794 5795 5795 5796 5797 5797 5797 5796 5796 5796 5797 5797 5797 5797 5797 5797 5797 5797 5797 5797 5798 5798 5798 5798 5798 5798 5798 5799 5799 5799 5799 5799 5799 5799 5799 5800 5800 5800 5800 5799 5799 5798 5798 5799 5799 5799 5800 5801 5801
5778 5778 5779 5780 5782 5784 5786 5787 5789 5790 5790 5791 5792 5793 5793 5794 5795 5796 5797 5796 5796 5796 5796 5796 5796 5796 5796 5796 5796 5796 5796 5796 5796 5796 5796 5797 5797 5797 5797 5797 5797 5798 5798 5798 5798 5798 5798 5798 5799 5799 5799 5799 5799 5799 5798 5797 5798 5798 5798 5798 5799 5800
5776 5777 5777 5778 5780 5782 5783 5785 5786 5788 5789 5789 5790 5791 5792 5793 5794 5795 5795 5795 5794 5794 5795 5795 5795 5795 5795 5795 5795 5795 5795 5795 5795 5795 5795 5795 5795 5796 5796 5796 5796 5796 5796 5796 5797 5796 5797 5797 5798 5798 5798 5798 5798 5798 5797 5796 5796 5797 5797 5796 5796 5797
5775 5776 5776 5777 5778 5780 5781 5783 5784 5785 5786 5787 5789 5789 5790 5791 5792 5793 5793 5793 5793 5793 5793 5793 5794 5794 5794 5793 5794 5794 5794 5794 5793 5793 5793 5793 5794 5794 5795 5795 5795 5795 5795 5795 5795 5795 5795 5795 5796 5796 5796 5796 5797 5796 5796 5795 5796 5796 5796 5796 5795 5795
5776 5776 5776 5777 5778 5779 5780 5781 5782 5783 5785 5786 5787 5788 5788 5789 5790 5790 5791 5791 5791 5791 5792 5792 5793 5792 5792 5792 5792 5792 5792 5791 5791 5791 5791 5791 5792 5793 5793 5794 5794 5794 5793 5793 5793 5793 5793 5793 5794 5794 5794 5794 5795 5794 5794 5794 5794 5794 5794 5794 5794 5794
5776 5776 5776 5776 5777 5778 5779 5780 5781 5782 5784 5785 5786 5787 5787 5787 5788 5788 5789 5789 5790 5790 5790 5791 5791 5791 5790 5790 5790 5790 5789 5789 5789 5789 5789 5790 5790 5791 5792 5792 5793 5793 5792 5792 5792 5791 5791 5792 5792 5792 5793 5793 5793 5793 5793 5793 5793 5793 5793 5793 5793 5793
5775 5775 5776 5776 5777 5778 5779 5780 5781 5782 5783 5784 5785 5785 5785 5785 5786 5786 5787 5788 5788 5788 5789 5789 5789 5789 5788 5787 5787 5787 5787 5787 5787 5787 5787 5788 5788 5789 5790 5791 5791 5791 5791 5791 5790 5790 5790 5791 5791 5791 5791 5791 5791 5791 5791 5791 5791 5791 5791 5791 5791 5791
5774 5775 5776 5776 5778 5779 5780 5781 5781 5782 5783 5783 5783 5784 5784 5784 5785 5785 5786 5787 5787 5787 5787 5787 5787 5786 5785 5785 5785 5785 5785 5785 5785 5785 5786 5786 5787 5787 5788 5789 5789 5790 5790 5789 5789 5789 5789 5790 5790 5790 5790 5790 5790 5790 5790 5790 5790 5789 5789 5789 5790 5790
5773 5774 5775 5776 5777 5778 5779 5780 5781 5782 5782 5782 5782 5782 5782 5783 5783 5783 5784 5785 5785 5785 5785 5784 5784 5783 5783 5782 5782 5783 5783 5783 5784 5784 5784 5785 5785 5785 5786 5787 5787 5788 5788 5788 5788 5788 5788 5788 5788 5788 5788 5788 5788 5788 5788 5788 5787 5787 5787 5787 5788 5788
5772 5773 5774 5775 5776 5777 5778 5779 5780 5781 5781 5781 5781 5781 5781 5781 5781 5781 5782 5782 5783 5783 5783 5782 5782 5781 5781 5780 5780 5780 5781 5781 5782 5782 5783 5783 5783 5784 5784 5785 5786 5786 5787 5787 5787 5786 5786 5786 5786 5787 5787 5787 5786 5786 5786 5785 5785 5785 5785 5786 5786 5786
5772 5773 5773 5774 5775 5776 5777 5778 5779 5779 5779 5779 5779 5779 5779 5779 5779 5779 5779 5780 5780 5781 5781 5780 5780 5779 5779 5779 5779 5779 5779 5779 5780 5780 5781 5781 5782 5782 5783 5783 5784 5784 5784 5785 5784 5784 5784 5784 5784 5784 5784 5784 5784 5783 5783 5783 5783 5783 5783 5784 5784 5785
5770 5772 5772 5773 5774 5775 5776 5777 5778 5778 5777 5777 5776 5776 5776 5776 5777 5777 5777 5777 5778 5778 5779 5778 5778 5778 5777 5777 5777 5777 5777 5778 5778 5778 5779 5779 5779 5780 5781 5781 5781 5782 5782 5782 5782 5781 5781 5781 5781 5781 5781 5781 5781 5781 5781 5781 5781 5781 5781 5782 5782 5783
5768 5770 5771 5772 5773 5774 5775 5775 5775 5775 5775 5774 5773 5773 5774 5774 5774 5775 5775 5775 5776 5776 5776 5776 5776 5776 5776 5776 5776 5776 5776 5776 5776 5776 5777 5777 5777 5778 5778 5779 5779 5779 5779 5779 5779 5778 5778 5778 5778 5778 5778 5778 5778 5778 5778 5778 5779 5779 5779 5779 5780 5780